Terminal Aerodrome Forecast
Issued by NWS Sterling, VA

Current Version | Previous Version | Text Only | Print | Product List | Glossary Off
Versions: 1 2 3 4 5 6 7 8 9 10 11 12 13 14 15 16 17 18 19 20 21

243
FTUS41 KLWX 212059 AAA
TAFDCA
TAF AMD
KDCA 212059Z 2121/2218 33008KT P6SM FEW050
     FM220400 29004KT P6SM BKN100
     FM220800 33010G18KT P6SM BKN050
     FM221000 34013G25KT P6SM FEW060=

USA.gov is the U.S. government's official web portal to all federal, state and local government web resources and services.